{"data":{"norad_id":56694,"intl_designator":"2023-067G","name":"STARLINK-30126","alt_names":[],"object_type":"PAYLOAD","status":"ACTIVE","operator":null,"country":"US","launch_date":"2023-05-19","launch_site_code":"AFETR","launch_vehicle":null,"mission":null,"orbit_class":"UNKNOWN","rcs_meters":null,"size_class":null,"mass_kg":null,"dimensions":null,"purposes":["comms"],"wikipedia_slug":null,"has_3d_model":false,"image_url":null,"decayed_at":null,"tle_current":{"epoch":"2026-05-25T04:50:42.730944Z","epoch_age_seconds":68351,"freshness":"FRESH","line1":"1 56694U 23067G   26145.20188346  .00007230  00000+0  27199-3 0  9990","line2":"2 56694  43.0030 202.1954 0001871 259.8247 100.2394 15.27580739167368","mean_motion":15.27580739,"eccentricity":0.0001871,"inclination_deg":43.003,"raan_deg":202.1954,"arg_perigee_deg":259.8247,"mean_anomaly_deg":100.2394,"bstar":0.00027199,"rev_number":16736,"period_min":94.266703110087,"perigee_km":481.76315570414,"apogee_km":484.33061071324,"semimajor_km":6861.1838832087,"source":"CELESTRAK","updated_at":"2026-05-25T13:38:18.120038Z"}}}